Location: Unspecified
(0.0000°N, 0.0000°E)
Time: 06:14:12
(UTC+00:00)

Explorer 11/Cluster Stage 4 - All Passes

Search period start: 23 March 2017 00:00
Search period end: 02 April 2017 00:00
Orbit: 467 x 1263 km, 28.8° (Epoch: 21 March)

Date Brightness Start Highest point End Pass type
(mag) Time Alt. Az. Time Alt. Az. Time Alt. Az.
23 Mar - 00:04:27 10° NW 00:09:07 43° NNE 00:14:58 10° ESE night (unlit)
23 Mar - 01:52:28 10° W 01:57:58 45° SSW 02:04:46 10° SE night (unlit)
23 Mar - 03:43:50 10° SW 03:47:57 16° SSW 03:52:25 10° SSE visible
23 Mar - 09:20:02 10° S 09:22:36 12° SSE 09:25:04 10° SE daylight
23 Mar - 11:06:36 10° SSW 11:12:59 30° SSE 11:18:23 10° E daylight
23 Mar - 12:55:36 10° WSW 13:02:14 76° NNW 13:07:27 10° NE daylight
23 Mar - 14:47:44 10° WNW 14:50:40 15° NNW 14:53:19 10° N daylight
23 Mar - 23:54:30 10° NW 23:59:07 52° NNE 00:04:55 10° ESE night (unlit)
24 Mar - 01:42:53 10° W 01:48:00 36° SSW 01:54:17 10° SE night (unlit)
24 Mar - 03:34:59 10° SW 03:38:04 13° SSW 03:41:22 10° S visible
24 Mar - 09:08:50 10° S 09:12:44 14° SSE 09:16:26 10° SE daylight
24 Mar - 10:56:03 10° SW 11:03:00 37° SSE 11:08:50 10° E daylight
24 Mar - 12:45:25 10° WSW 12:52:12 62° NNW 12:57:33 10° NE daylight
24 Mar - 14:38:25 10° WNW 14:40:43 13° NNW 14:42:51 10° N daylight
24 Mar - 22:00:04 10° NNE 22:00:51 10° NNE 22:01:40 10° NE night (unlit)
24 Mar - 23:44:37 10° NW 23:49:07 66° NNE 23:54:50 10° ESE night (unlit)
25 Mar - 01:33:24 10° W 01:38:05 29° SSW 01:43:44 10° SSE night (unlit)
25 Mar - 03:26:52 10° SSW 03:28:15 11° SSW 03:29:40 10° S visible
25 Mar - 08:57:57 10° SSW 09:02:49 17° SSE 09:07:25 10° ESE daylight
25 Mar - 10:45:34 10° SW 10:52:58 45° SSE 10:59:12 10° E daylight
25 Mar - 12:35:17 10° WSW 12:42:07 51° NNW 12:47:36 10° NE daylight
25 Mar - 14:29:29 10° NW 14:30:47 11° NNW 14:32:01 10° NNW daylight
25 Mar - 21:49:06 10° N 21:50:57 13° NNE 21:52:56 10° ENE night (unlit)
25 Mar - 23:34:47 10° WNW 23:39:09 84° NNE 23:44:41 10° ESE night (unlit)
26 Mar - 01:24:02 10° WSW 01:28:12 23° SSW 01:33:07 10° SSE night (unlit)
26 Mar - 08:47:14 10° SSW 08:52:51 20° SSE 08:58:10 10° ESE daylight
26 Mar - 10:35:07 10° SW 10:42:54 55° SSE 10:49:28 10° ENE daylight
26 Mar - 12:25:13 10° WSW 12:32:01 43° NNW 12:37:36 10° NE daylight
26 Mar - 21:38:38 10° N 21:41:02 16° NNE 21:43:39 10° ENE night (unlit)
26 Mar - 23:25:02 10° WNW 23:29:14 74° SSW 23:34:30 10° SE night (unlit)
27 Mar - 01:14:51 10° WSW 01:18:21 18° SSW 01:22:23 10° SSE night (unlit)
27 Mar - 08:36:36 10° SSW 08:42:51 23° SSE 08:48:47 10° ESE daylight
27 Mar - 10:24:44 10° SW 10:32:47 66° SSE 10:39:39 10° ENE daylight
27 Mar - 12:15:12 10° W 12:21:56 37° NNW 12:27:31 10° NNE daylight
27 Mar - 21:28:21 10° NNW 21:31:08 20° NNE 21:34:11 10° E night (unlit)
27 Mar - 23:15:19 10° WNW 23:19:21 55° SSW 23:24:17 10° SE night (unlit)
28 Mar - 01:05:55 10° SW 01:08:33 14° SSW 01:11:25 10° S night (unlit)
28 Mar - 08:26:02 10° SSW 08:32:47 27° SSE 08:39:15 10° E daylight
28 Mar - 10:14:25 10° SW 10:22:38 78° SSE 10:29:45 10° ENE daylight
28 Mar - 12:05:15 10° W 12:11:49 32° NNW 12:17:24 10° NNE daylight
28 Mar - 21:18:10 10° NNW 21:21:14 25° NNE 21:24:35 10° E night (unlit)
28 Mar - 23:05:42 10° W 23:09:28 40° SSW 23:14:00 10° SE night (unlit)
29 Mar - 00:57:52 10° SSW 00:58:46 10° SSW 00:59:41 10° S night (unlit)
29 Mar - 06:29:54 10° S 06:32:14 11° SSE 06:34:37 10° SE daylight
29 Mar - 08:15:34 10° SSW 08:22:42 32° SSE 08:29:36 10° E daylight
29 Mar - 10:04:08 10° WSW 10:12:27 90° NNE 10:19:47 10° ENE daylight
29 Mar - 11:55:22 10° W 12:01:42 28° NNW 12:07:12 10° NNE daylight
29 Mar - 21:08:03 10° NW 21:11:21 33° NNE 21:14:54 10° E night (unlit)
29 Mar - 22:56:11 10° W 22:59:38 30° SSW 23:03:39 10° SE night (unlit)
30 Mar - 06:18:58 10° S 06:22:18 13° SSE 06:25:45 10° SE daylight
30 Mar - 08:05:09 10° SW 08:12:34 37° SSE 08:19:52 10° E daylight
30 Mar - 09:53:56 10° WSW 10:02:15 78° NNW 10:09:44 10° NE daylight
30 Mar - 11:45:34 10° W 11:51:36 24° NNW 11:56:58 10° NNE daylight
30 Mar - 20:58:01 10° NW 21:01:28 45° NNE 21:05:09 10° ESE night (unlit)
30 Mar - 22:46:46 10° W 22:49:49 22° SSW 22:53:13 10° SSE night (unlit)
31 Mar - 06:08:17 10° S 06:12:20 15° SSE 06:16:34 10° SE daylight
31 Mar - 07:54:47 10° SW 08:02:25 43° SSE 08:10:02 10° E daylight
31 Mar - 09:43:47 10° WSW 09:52:03 67° NNW 09:59:38 10° NE daylight
31 Mar - 11:35:52 10° WNW 11:41:31 21° NNW 11:46:39 10° NNE daylight
31 Mar - 20:48:02 10° NW 20:51:36 64° NNE 20:55:19 10° ESE visible
31 Mar - 22:37:31 10° WSW 22:40:00 16° SSW 22:42:40 10° SSE night (unlit)
01 Apr - 05:57:44 10° SSW 06:02:20 17° SSE 06:07:13 10° ESE daylight
01 Apr - 07:44:28 10° SW 07:52:13 50° SSE 08:00:07 10° ENE daylight
01 Apr - 09:33:42 10° WSW 09:41:49 57° NNW 09:49:28 10° NE daylight
01 Apr - 11:26:16 10° WNW 11:31:28 19° NNW 11:36:16 10° NNE daylight
01 Apr - 18:51:53 10° N 18:53:21 12° NNE 18:54:48 10° NE visible
01 Apr - 20:38:06 10° WNW 20:41:45 89° SSW 20:45:26 10° ESE visible
01 Apr - 22:28:39 10° SW 22:30:12 12° SSW 22:31:48 10° S night (unlit)
